Flag for Greenland Weather past 2 weeks in Nuuk, Greenland

Now
12 °F

Light snow. Overcast.


Feels Like: -6 °F
Forecast: 9 / 12 °F
Wind: 20 mph from Northwest

Location: Godthaab / Nuuk

Current Time: Feb 28, 2015 at 10:35:55 PM

Latest Report: Feb 28, 2015 at 9:50 PM


Visibility: 5 mi

Pressure: 29.33 "Hg

Humidity: 85%

Dew point: 9 °F

Location of NuukLocation

Historic Weather in Nuuk — Graph

°F

Nuuk temperature yesterday

Maximum temperature yesterday: 16 °F (at 11:50 AM)
Minimum temperature yesterday: 9 °F (at 2:50 AM)
Average temperature yesterday: 12 °F

Past Weeks' High & Low Weather Summary

 TemperatureHumidityPressure
High21 °F (Feb 17, 8:50 PM)92% (Feb 18, 7:50 PM)30.15 "Hg (Feb 18, 7:50 PM)
Low-2 °F (Feb 14, 8:50 AM)44% (Feb 21, 7:50 PM)29.03 "Hg (Feb 17, 10:50 AM)
Average8 °F70%29.50 "Hg
* Reported Feb 13 8:50 PM — Feb 28 8:50 PM, Nuuk, Weather by CustomWeather, © 2015

Note: Actual official high and low records may vary slightly from our data, if they occured in-between our weather recording intervals... More about our weather records

Advertising

Nuuk weather history for previous 24 hours

 ConditionsComfort  
Time TempWeatherWind HumidityBarometerVisibility
8:50 PM
Sat, Feb 28
12 °FLight snow. Low clouds.20 mph92%29.30 "Hg4 mi
7:50 PM14 °FSnow flurries. Passing clouds.12 mph79%29.30 "HgN/A
6:50 PM14 °FSnow flurries. Overcast.13 mph79%29.30 "HgN/A
6:20 PM14 °FLight snow. Passing clouds.14 mph79%29.30 "HgN/A
5:50 PM14 °FLight snow. Passing clouds.14 mph79%29.27 "HgN/A
4:50 PM14 °FScattered clouds.16 mph79%29.27 "HgN/A
3:50 PM16 °FBroken clouds.10 mph73%29.24 "HgN/A
2:50 PM16 °FPartly sunny.9 mph73%29.24 "HgN/A
1:50 PM16 °FPartly sunny.8 mph73%29.24 "HgN/A
12:50 PM14 °FBroken clouds.10 mph79%29.24 "HgN/A
11:50 AM16 °FPartly sunny.7 mph67%29.24 "HgN/A
10:50 AM14 °FBroken clouds.5 mph57%29.24 "HgN/A
9:50 AM12 °FPartly sunny.2 mph57%29.24 "HgN/A
8:50 AM12 °FScattered clouds.3 mph73%29.24 "HgN/A
7:50 AM10 °FPartly sunny.5 mph72%29.24 "HgN/A
6:50 AM9 °FPassing clouds.2 mph85%29.24 "HgN/A
5:50 AM12 °FPassing clouds.3 mph79%29.24 "HgN/A
4:50 AM12 °FPassing clouds.3 mph79%29.24 "HgN/A
3:50 AM12 °FPassing clouds.6 mph79%29.24 "HgN/A
2:50 AM12 °FCold.10 mph73%29.27 "HgN/A
1:50 AM12 °FPassing clouds.13 mph79%29.27 "HgN/A
12:50 AM12 °FPassing clouds.13 mph79%29.27 "HgN/A
11:50 PM
Fri, Feb 27
14 °FPassing clouds.14 mph73%29.30 "HgN/A
10:50 PM14 °FSnow flurries. Passing clouds.13 mph73%29.30 "HgN/A
Weather by CustomWeather, © 2015

See weather overviewHow to use our weather pages